Time,TemperatureF,DewpointF,PressureIn,WindDirection,WindDirectionDegrees,WindSpeedMPH,WindSpeedGustMPH,Humidity,HourlyPrecipIn,Conditions,Clouds,dailyrainin,SoftwareType,DateUTC
2013-09-01 00:00:00,61.3,55.3,29.73,WSW,256,5.0,7.0,81,0.00,,,0.00,VWS V14.01,2013-09-01 05:00:00,
2013-09-01 00:01:00,60.5,55.2,29.74,WNW,288,5.0,5.0,83,0.00,,,0.00,VWS V14.01,2013-09-01 05:01:00,
2013-09-01 00:06:00,60.2,54.9,29.74,West,270,6.0,6.0,83,0.00,,,0.00,VWS V14.01,2013-09-01 05:06:00,
2013-09-01 00:11:00,59.9,55.0,29.75,WNW,284,4.0,6.0,84,0.00,,,0.00,VWS V14.01,2013-09-01 05:11:00,
2013-09-01 00:15:00,61.0,55.0,29.74,WNW,282,4.0,8.0,81,0.00,,,0.00,VWS V14.01,2013-09-01 05:15:00,
2013-09-01 00:16:00,59.6,54.7,29.75,West,264,4.0,6.0,84,0.00,,,0.00,VWS V14.01,2013-09-01 05:16:00,
2013-09-01 00:21:00,59.5,54.9,29.75,WSW,251,4.0,7.0,85,0.00,,,0.00,VWS V14.01,2013-09-01 05:21:00,
2013-09-01 00:26:00,59.4,54.8,29.75,WNW,285,7.0,7.0,85,0.00,,,0.00,VWS V14.01,2013-09-01 05:26:00,
2013-09-01 00:30:00,60.6,55.0,29.74,West,269,4.0,7.0,82,0.00,,,0.00,VWS V14.01,2013-09-01 05:30:00,
2013-09-01 00:31:00,59.6,55.0,29.75,West,259,3.0,7.0,85,0.00,,,0.00,VWS V14.01,2013-09-01 05:31:00,
2013-09-01 00:36:00,59.7,55.1,29.75,WNW,293,7.0,7.0,85,0.00,,,0.00,VWS V14.01,2013-09-01 05:36:00,
2013-09-01 00:41:00,59.9,55.3,29.75,WNW,285,8.0,9.0,85,0.00,,,0.00,VWS V14.01,2013-09-01 05:41:00,
2013-09-01 00:45:00,60.8,55.2,29.74,West,281,3.0,8.0,82,0.00,,,0.00,VWS V14.01,2013-09-01 05:45:00,
2013-09-01 00:46:00,60.0,55.4,29.75,West,271,7.0,9.0,85,0.00,,,0.00,VWS V14.01,2013-09-01 05:46:00,
2013-09-01 00:51:00,60.0,55.4,29.75,WNW,284,6.0,9.0,85,0.00,,,0.00,VWS V14.01,2013-09-01 05:51:00,
2013-09-01 00:56:00,59.9,55.6,29.76,WNW,294,5.0,9.0,86,0.00,,,0.00,VWS V14.01,2013-09-01 05:56:00,
2013-09-01 01:00:00,60.5,55.2,29.74,WNW,287,4.0,7.0,83,0.00,,,0.00,VWS V14.01,2013-09-01 06:00:00,
2013-09-01 01:01:00,59.6,55.3,29.76,NW,311,4.0,6.0,86,0.00,,,0.00,VWS V14.01,2013-09-01 06:01:00,
2013-09-01 01:06:00,59.4,55.1,29.76,WNW,289,5.0,10.0,86,0.00,,,0.00,VWS V14.01,2013-09-01 06:06:00,
2013-09-01 01:11:00,59.4,55.4,29.76,WNW,301,3.0,10.0,87,0.00,,,0.00,VWS V14.01,2013-09-01 06:11:00,
2013-09-01 01:15:00,59.7,54.8,29.75,West,268,3.0,6.0,84,0.00,,,0.00,VWS V14.01,2013-09-01 06:15:00,
2013-09-01 01:16:00,59.3,55.3,29.76,NNW,334,8.0,10.0,87,0.00,,,0.00,VWS V14.01,2013-09-01 06:16:00,
2013-09-01 01:21:00,59.3,55.3,29.76,NNW,333,5.0,10.0,87,0.00,,,0.00,VWS V14.01,2013-09-01 06:21:00,
2013-09-01 01:26:00,59.3,55.7,29.76,WNW,282,6.0,10.0,88,0.00,,,0.00,VWS V14.01,2013-09-01 06:26:00,
2013-09-01 01:30:00,59.6,55.0,29.75,West,273,4.0,7.0,85,0.00,,,0.00,VWS V14.01,2013-09-01 06:30:00,
2013-09-01 01:31:00,59.3,55.7,29.76,WNW,284,5.0,8.0,88,0.00,,,0.00,VWS V14.01,2013-09-01 06:31:00,
2013-09-01 01:36:00,59.2,55.6,29.76,NW,304,9.0,9.0,88,0.00,,,0.00,VWS V14.01,2013-09-01 06:36:00,
2013-09-01 01:41:00,59.1,55.5,29.76,West,280,3.0,9.0,88,0.00,,,0.00,VWS V14.01,2013-09-01 06:41:00,
2013-09-01 01:45:00,60.0,55.4,29.75,WNW,293,9.0,9.0,85,0.00,,,0.00,VWS V14.01,2013-09-01 06:45:00,
2013-09-01 01:46:00,59.0,55.4,29.76,NW,307,3.0,5.0,88,0.00,,,0.00,VWS V14.01,2013-09-01 06:46:00,
2013-09-01 01:51:00,59.0,55.7,29.76,WNW,302,2.0,8.0,89,0.00,,,0.00,VWS V14.01,2013-09-01 06:51:00,
2013-09-01 01:56:00,58.9,55.6,29.76,WNW,294,3.0,8.0,89,0.00,,,0.00,VWS V14.01,2013-09-01 06:56:00,
2013-09-01 02:00:00,59.7,55.4,29.76,West,276,4.0,9.0,86,0.00,,,0.00,VWS V14.01,2013-09-01 07:00:00,
2013-09-01 02:01:00,58.8,55.8,29.76,WNW,294,4.0,7.0,90,0.00,,,0.00,VWS V14.01,2013-09-01 07:01:00,
2013-09-01 02:06:00,58.9,55.9,29.76,NW,309,1.0,7.0,90,0.00,,,0.00,VWS V14.01,2013-09-01 07:06:00,
2013-09-01 02:11:00,58.8,55.8,29.77,NW,309,3.0,7.0,90,0.00,,,0.00,VWS V14.01,2013-09-01 07:11:00,
2013-09-01 02:15:00,59.3,55.3,29.76,WNW,289,4.0,10.0,87,0.00,,,0.00,VWS V14.01,2013-09-01 07:15:00,
2013-09-01 02:16:00,59.0,56.3,29.77,NW,305,2.0,4.0,91,0.00,,,0.00,VWS V14.01,2013-09-01 07:16:00,
2013-09-01 02:21:00,59.1,56.4,29.77,NNW,334,1.0,8.0,91,0.00,,,0.00,VWS V14.01,2013-09-01 07:21:00,
2013-09-01 02:26:00,59.2,56.8,29.78,NW,308,4.0,8.0,92,0.00,,,0.00,VWS V14.01,2013-09-01 07:26:00,
2013-09-01 02:30:00,59.2,55.6,29.76,WNW,282,4.0,10.0,88,0.00,,,0.00,VWS V14.01,2013-09-01 07:30:00,
2013-09-01 02:31:00,59.1,56.7,29.78,NW,307,1.0,5.0,92,0.00,,,0.00,VWS V14.01,2013-09-01 07:31:00,
2013-09-01 02:36:00,59.1,56.7,29.78,WNW,299,6.0,6.0,92,0.00,,,0.00,VWS V14.01,2013-09-01 07:36:00,
2013-09-01 02:41:00,59.2,56.8,29.78,WNW,286,5.0,6.0,92,0.00,,,0.00,VWS V14.01,2013-09-01 07:41:00,
2013-09-01 02:45:00,59.1,55.5,29.76,NW,319,2.0,9.0,88,0.00,,,0.00,VWS V14.01,2013-09-01 07:45:00,
2013-09-01 02:46:00,59.1,56.7,29.78,NW,311,5.0,5.0,92,0.00,,,0.00,VWS V14.01,2013-09-01 07:46:00,
2013-09-01 02:51:00,58.9,56.5,29.78,WNW,288,1.0,6.0,92,0.00,,,0.00,VWS V14.01,2013-09-01 07:51:00,
2013-09-01 02:56:00,58.9,56.8,29.78,NNW,328,2.0,6.0,93,0.00,,,0.00,VWS V14.01,2013-09-01 07:56:00,
2013-09-01 03:00:00,58.8,55.8,29.76,NW,311,4.0,8.0,90,0.00,,,0.00,VWS V14.01,2013-09-01 08:00:00,
2013-09-01 03:01:00,59.1,57.0,29.78,WNW,300,2.0,5.0,93,0.00,,,0.00,VWS V14.01,2013-09-01 08:01:00,
2013-09-01 03:06:00,59.1,57.0,29.79,NNE,21,5.0,5.0,93,0.00,,,0.00,VWS V14.01,2013-09-01 08:06:00,
2013-09-01 03:11:00,59.3,57.2,29.79,NW,317,4.0,5.0,93,0.00,,,0.00,VWS V14.01,2013-09-01 08:11:00,
2013-09-01 03:15:00,59.0,56.3,29.77,West,276,4.0,7.0,91,0.00,,,0.00,VWS V14.01,2013-09-01 08:15:00,
2013-09-01 03:16:00,59.5,57.4,29.79,WNW,298,2.0,5.0,93,0.00,,,0.00,VWS V14.01,2013-09-01 08:16:00,
2013-09-01 03:21:00,59.6,57.5,29.79,WNW,288,3.0,8.0,93,0.00,,,0.00,VWS V14.01,2013-09-01 08:21:00,
2013-09-01 03:26:00,59.6,57.5,29.79,West,271,3.0,8.0,93,0.00,,,0.00,VWS V14.01,2013-09-01 08:26:00,
2013-09-01 03:30:00,59.1,56.4,29.78,NNW,332,3.0,8.0,91,0.00,,,0.00,VWS V14.01,2013-09-01 08:30:00,
2013-09-01 03:31:00,59.5,57.4,29.79,West,280,5.0,6.0,93,0.00,,,0.00,VWS V14.01,2013-09-01 08:31:00,
2013-09-01 03:36:00,59.5,57.4,29.79,WNW,294,5.0,6.0,93,0.00,,,0.00,VWS V14.01,2013-09-01 08:36:00,
2013-09-01 03:41:00,59.5,57.4,29.79,WNW,292,4.0,7.0,93,0.00,,,0.00,VWS V14.01,2013-09-01 08:41:00,
2013-09-01 03:45:00,59.1,56.7,29.78,WNW,290,2.0,6.0,92,0.00,,,0.00,VWS V14.01,2013-09-01 08:45:00,
2013-09-01 03:46:00,59.4,57.3,29.80,WNW,293,3.0,5.0,93,0.00,,,0.00,VWS V14.01,2013-09-01 08:46:00,
2013-09-01 03:51:00,59.2,57.1,29.80,WNW,288,3.0,6.0,93,0.00,,,0.00,VWS V14.01,2013-09-01 08:51:00,
2013-09-01 03:56:00,58.9,56.8,29.80,WNW,290,2.0,6.0,93,0.00,,,0.00,VWS V14.01,2013-09-01 08:56:00,
2013-09-01 04:00:00,59.1,57.0,29.78,West,278,1.0,6.0,93,0.00,,,0.00,VWS V14.01,2013-09-01 09:00:00,
2013-09-01 04:01:00,58.7,56.6,29.80,WNW,296,1.0,4.0,93,0.00,,,0.00,VWS V14.01,2013-09-01 09:01:00,
2013-09-01 04:06:00,58.6,56.8,29.80,West,266,1.0,4.0,94,0.00,,,0.00,VWS V14.01,2013-09-01 09:06:00,
2013-09-01 04:11:00,58.5,56.7,29.80,West,275,2.0,4.0,94,0.00,,,0.00,VWS V14.01,2013-09-01 09:11:00,
2013-09-01 04:15:00,59.4,57.3,29.79,NW,314,2.0,6.0,93,0.00,,,0.00,VWS V14.01,2013-09-01 09:15:00,
2013-09-01 04:16:00,58.4,56.6,29.80,West,275,0.0,1.0,94,0.00,,,0.00,VWS V14.01,2013-09-01 09:16:00,
2013-09-01 04:21:00,58.1,56.0,29.80,NW,314,2.0,4.0,93,0.00,,,0.00,VWS V14.01,2013-09-01 09:21:00,
2013-09-01 04:26:00,58.0,56.2,29.80,WNW,302,2.0,5.0,94,0.00,,,0.00,VWS V14.01,2013-09-01 09:26:00,
2013-09-01 04:30:00,59.6,57.5,29.79,WNW,288,4.0,8.0,93,0.00,,,0.00,VWS V14.01,2013-09-01 09:30:00,
2013-09-01 04:31:00,57.8,56.0,29.80,WNW,303,0.0,1.0,94,0.00,,,0.00,VWS V14.01,2013-09-01 09:31:00,
2013-09-01 04:36:00,57.6,55.8,29.80,WNW,298,4.0,4.0,94,0.00,,,0.00,VWS V14.01,2013-09-01 09:36:00,
2013-09-01 04:41:00,57.5,55.7,29.81,WNW,287,3.0,6.0,94,0.00,,,0.00,VWS V14.01,2013-09-01 09:41:00,
2013-09-01 04:45:00,59.4,57.3,29.80,WNW,285,3.0,7.0,93,0.00,,,0.00,VWS V14.01,2013-09-01 09:45:00,
2013-09-01 04:46:00,57.7,55.9,29.81,WNW,285,4.0,7.0,94,0.00,,,0.00,VWS V14.01,2013-09-01 09:46:00,
2013-09-01 04:51:00,57.8,56.3,29.81,WNW,289,4.0,7.0,95,0.00,,,0.00,VWS V14.01,2013-09-01 09:51:00,
2013-09-01 04:56:00,57.6,55.8,29.81,WNW,286,4.0,7.0,94,0.00,,,0.00,VWS V14.01,2013-09-01 09:56:00,
2013-09-01 05:00:00,58.7,56.6,29.80,WNW,282,1.0,6.0,93,0.00,,,0.00,VWS V14.01,2013-09-01 10:00:00,
2013-09-01 05:01:00,57.5,56.0,29.81,WNW,294,0.0,4.0,95,0.00,,,0.00,VWS V14.01,2013-09-01 10:01:00,
2013-09-01 05:06:00,57.3,55.8,29.81,WNW,282,3.0,5.0,95,0.00,,,0.00,VWS V14.01,2013-09-01 10:06:00,
2013-09-01 05:11:00,57.1,55.6,29.82,NW,311,1.0,5.0,95,0.00,,,0.00,VWS V14.01,2013-09-01 10:11:00,
2013-09-01 05:15:00,58.4,56.6,29.80,West,275,0.0,4.0,94,0.00,,,0.00,VWS V14.01,2013-09-01 10:15:00,
2013-09-01 05:16:00,57.0,55.5,29.82,WNW,300,4.0,5.0,95,0.00,,,0.00,VWS V14.01,2013-09-01 10:16:00,
2013-09-01 05:21:00,56.9,55.4,29.82,WNW,294,3.0,5.0,95,0.00,,,0.00,VWS V14.01,2013-09-01 10:21:00,
2013-09-01 05:26:00,56.7,55.2,29.82,NW,325,3.0,5.0,95,0.00,,,0.00,VWS V14.01,2013-09-01 10:26:00,
2013-09-01 05:30:00,57.8,56.0,29.80,WNW,303,0.0,5.0,94,0.00,,,0.00,VWS V14.01,2013-09-01 10:30:00,
2013-09-01 05:31:00,56.6,55.1,29.82,West,269,3.0,4.0,95,0.00,,,0.00,VWS V14.01,2013-09-01 10:31:00,
2013-09-01 05:36:00,56.5,55.0,29.82,NW,311,3.0,5.0,95,0.00,,,0.00,VWS V14.01,2013-09-01 10:36:00,
2013-09-01 05:41:00,56.4,54.9,29.82,NW,304,1.0,5.0,95,0.00,,,0.00,VWS V14.01,2013-09-01 10:41:00,
2013-09-01 05:45:00,57.7,55.9,29.81,WNW,288,4.0,6.0,94,0.00,,,0.00,VWS V14.01,2013-09-01 10:45:00,
2013-09-01 05:46:00,56.3,54.8,29.83,NW,304,3.0,5.0,95,0.00,,,0.00,VWS V14.01,2013-09-01 10:46:00,
2013-09-01 05:51:00,56.4,54.9,29.83,West,276,2.0,6.0,95,0.00,,,0.00,VWS V14.01,2013-09-01 10:51:00,
2013-09-01 05:56:00,56.4,54.9,29.84,NW,307,2.0,6.0,95,0.00,,,0.00,VWS V14.01,2013-09-01 10:56:00,
2013-09-01 06:00:00,57.5,56.0,29.81,WNW,294,4.0,7.0,95,0.00,,,0.00,VWS V14.01,2013-09-01 11:00:00,
2013-09-01 06:01:00,56.5,55.0,29.84,NW,320,4.0,5.0,95,0.00,,,0.00,VWS V14.01,2013-09-01 11:01:00,
2013-09-01 06:06:00,56.6,55.1,29.84,NW,309,2.0,5.0,95,0.00,,,0.00,VWS V14.01,2013-09-01 11:06:00,
2013-09-01 06:11:00,56.6,55.1,29.84,WNW,302,1.0,5.0,95,0.00,,,0.00,VWS V14.01,2013-09-01 11:11:00,
2013-09-01 06:15:00,57.0,55.5,29.82,WNW,303,2.0,5.0,95,0.00,,,0.00,VWS V14.01,2013-09-01 11:15:00,
2013-09-01 06:16:00,56.7,55.2,29.84,NW,313,3.0,3.0,95,0.00,,,0.00,VWS V14.01,2013-09-01 11:16:00,
2013-09-01 06:21:00,56.7,55.2,29.84,NW,308,3.0,6.0,95,0.00,,,0.00,VWS V14.01,2013-09-01 11:21:00,
2013-09-01 06:26:00,56.8,55.6,29.84,West,281,3.0,6.0,96,0.00,,,0.00,VWS V14.01,2013-09-01 11:26:00,
2013-09-01 06:30:00,56.7,55.2,29.82,NW,309,2.0,5.0,95,0.00,,,0.00,VWS V14.01,2013-09-01 11:30:00,
2013-09-01 06:31:00,56.8,55.6,29.84,NW,320,3.0,4.0,96,0.00,,,0.00,VWS V14.01,2013-09-01 11:31:00,
2013-09-01 06:36:00,56.9,55.7,29.85,NW,307,2.0,8.0,96,0.00,,,0.00,VWS V14.01,2013-09-01 11:36:00,
2013-09-01 06:41:00,56.9,55.7,29.85,NNW,327,3.0,8.0,96,0.00,,,0.00,VWS V14.01,2013-09-01 11:41:00,
2013-09-01 06:45:00,56.3,54.8,29.83,WNW,284,3.0,5.0,95,0.00,,,0.00,VWS V14.01,2013-09-01 11:45:00,
2013-09-01 06:46:00,57.0,55.8,29.85,WNW,299,0.0,1.0,96,0.00,,,0.00,VWS V14.01,2013-09-01 11:46:00,
2013-09-01 06:51:00,57.0,55.8,29.85,WNW,300,3.0,7.0,96,0.00,,,0.00,VWS V14.01,2013-09-01 11:51:00,
2013-09-01 06:56:00,56.9,55.4,29.85,NW,316,1.0,7.0,95,0.00,,,0.00,VWS V14.01,2013-09-01 11:56:00,
2013-09-01 07:00:00,56.5,55.0,29.84,NW,321,2.0,7.0,95,0.00,,,0.00,VWS V14.01,2013-09-01 12:00:00,
2013-09-01 07:01:00,56.8,55.3,29.85,NW,325,2.0,6.0,95,0.00,,,0.00,VWS V14.01,2013-09-01 12:01:00,
2013-09-01 07:06:00,56.8,55.6,29.85,NNW,332,2.0,6.0,96,0.00,,,0.00,VWS V14.01,2013-09-01 12:06:00,
2013-09-01 07:11:00,56.8,55.3,29.85,North,6,2.0,6.0,95,0.00,,,0.00,VWS V14.01,2013-09-01 12:11:00,
2013-09-01 07:15:00,56.7,55.2,29.84,WNW,300,1.0,5.0,95,0.00,,,0.00,VWS V14.01,2013-09-01 12:15:00,
2013-09-01 07:16:00,56.7,55.2,29.85,NNW,342,1.0,5.0,95,0.00,,,0.00,VWS V14.01,2013-09-01 12:16:00,
2013-09-01 07:21:00,56.7,55.2,29.86,NW,323,0.0,5.0,95,0.00,,,0.00,VWS V14.01,2013-09-01 12:21:00,
2013-09-01 07:26:00,56.8,55.3,29.86,NNW,344,2.0,5.0,95,0.00,,,0.00,VWS V14.01,2013-09-01 12:26:00,
2013-09-01 07:30:00,56.8,55.6,29.84,NW,324,3.0,6.0,96,0.00,,,0.00,VWS V14.01,2013-09-01 12:30:00,
2013-09-01 07:31:00,56.8,55.3,29.86,North,353,4.0,4.0,95,0.00,,,0.00,VWS V14.01,2013-09-01 12:31:00,
2013-09-01 07:36:00,56.8,55.3,29.86,NNW,328,1.0,5.0,95,0.00,,,0.00,VWS V14.01,2013-09-01 12:36:00,
2013-09-01 07:41:00,56.9,55.4,29.86,NNW,343,1.0,7.0,95,0.00,,,0.00,VWS V14.01,2013-09-01 12:41:00,
2013-09-01 07:45:00,57.0,55.8,29.85,WNW,299,1.0,8.0,96,0.00,,,0.00,VWS V14.01,2013-09-01 12:45:00,
2013-09-01 07:46:00,56.9,55.4,29.86,NNW,338,2.0,4.0,95,0.00,,,0.00,VWS V14.01,2013-09-01 12:46:00,
2013-09-01 07:51:00,56.9,55.4,29.87,NW,321,1.0,6.0,95,0.00,,,0.00,VWS V14.01,2013-09-01 12:51:00,
2013-09-01 07:56:00,56.9,55.4,29.87,NW,306,1.0,6.0,95,0.00,,,0.00,VWS V14.01,2013-09-01 12:56:00,
2013-09-01 08:00:00,56.8,55.3,29.85,WNW,294,3.0,7.0,95,0.00,,,0.00,VWS V14.01,2013-09-01 13:00:00,
2013-09-01 08:01:00,57.0,55.5,29.87,West,275,4.0,4.0,95,0.00,,,0.00,VWS V14.01,2013-09-01 13:01:00,
2013-09-01 08:06:00,57.0,55.5,29.87,NW,323,3.0,5.0,95,0.00,,,0.00,VWS V14.01,2013-09-01 13:06:00,
2013-09-01 08:11:00,57.1,55.6,29.87,North,4,3.0,6.0,95,0.00,,,0.00,VWS V14.01,2013-09-01 13:11:00,
2013-09-01 08:15:00,56.7,55.2,29.85,NNE,28,3.0,7.0,95,0.00,,,0.00,VWS V14.01,2013-09-01 13:15:00,
2013-09-01 08:16:00,57.1,55.6,29.88,North,358,2.0,3.0,95,0.00,,,0.00,VWS V14.01,2013-09-01 13:16:00,
2013-09-01 08:21:00,57.2,55.4,29.88,North,360,1.0,6.0,94,0.00,,,0.00,VWS V14.01,2013-09-01 13:21:00,
2013-09-01 08:26:00,57.3,55.8,29.88,North,359,2.0,6.0,95,0.00,,,0.00,VWS V14.01,2013-09-01 13:26:00,
2013-09-01 08:30:00,56.9,55.4,29.86,North,349,2.0,5.0,95,0.00,,,0.00,VWS V14.01,2013-09-01 13:30:00,
2013-09-01 08:31:00,57.3,55.5,29.89,North,5,3.0,3.0,94,0.00,,,0.00,VWS V14.01,2013-09-01 13:31:00,
2013-09-01 08:36:00,57.3,55.5,29.89,North,6,4.0,7.0,94,0.00,,,0.00,VWS V14.01,2013-09-01 13:36:00,
2013-09-01 08:41:00,57.2,55.4,29.89,NNE,15,5.0,7.0,94,0.00,,,0.00,VWS V14.01,2013-09-01 13:41:00,
2013-09-01 08:45:00,56.9,55.4,29.86,NNW,335,2.0,7.0,95,0.00,,,0.00,VWS V14.01,2013-09-01 13:45:00,
2013-09-01 08:46:00,57.2,55.4,29.89,NNE,16,3.0,6.0,94,0.00,,,0.00,VWS V14.01,2013-09-01 13:46:00,
2013-09-01 08:51:00,57.2,55.4,29.89,North,356,2.0,6.0,94,0.00,,,0.00,VWS V14.01,2013-09-01 13:51:00,
2013-09-01 08:56:00,57.4,55.6,29.89,WNW,302,4.0,6.0,94,0.00,,,0.00,VWS V14.01,2013-09-01 13:56:00,
2013-09-01 09:01:00,57.2,55.1,29.89,NNW,332,3.0,8.0,93,0.00,,,0.00,VWS V14.01,2013-09-01 14:01:00,
2013-09-01 09:06:00,57.3,55.2,29.89,NNW,338,3.0,8.0,93,0.00,,,0.00,VWS V14.01,2013-09-01 14:06:00,
2013-09-01 09:11:00,57.4,55.3,29.89,NNW,342,3.0,8.0,93,0.00,,,0.00,VWS V14.01,2013-09-01 14:11:00,
2013-09-01 09:15:00,57.1,55.6,29.88,NNW,346,3.0,6.0,95,0.00,,,0.00,VWS V14.01,2013-09-01 14:15:00,
2013-09-01 09:16:00,57.4,55.3,29.89,North,352,5.0,8.0,93,0.00,,,0.00,VWS V14.01,2013-09-01 14:16:00,
2013-09-01 09:21:00,57.4,55.0,29.90,NNW,329,1.0,8.0,92,0.00,,,0.00,VWS V14.01,2013-09-01 14:21:00,
2013-09-01 09:26:00,57.6,55.5,29.90,West,281,2.0,8.0,93,0.00,,,0.00,VWS V14.01,2013-09-01 14:26:00,
2013-09-01 09:30:00,57.3,55.5,29.89,North,352,2.0,6.0,94,0.00,,,0.00,VWS V14.01,2013-09-01 14:30:00,
2013-09-01 09:31:00,57.7,55.3,29.90,NNE,17,1.0,3.0,92,0.00,,,0.00,VWS V14.01,2013-09-01 14:31:00,
2013-09-01 09:36:00,58.0,55.6,29.90,NNW,329,1.0,5.0,92,0.00,,,0.00,VWS V14.01,2013-09-01 14:36:00,
2013-09-01 09:41:00,58.4,56.0,29.90,North,359,3.0,5.0,92,0.00,,,0.00,VWS V14.01,2013-09-01 14:41:00,
2013-09-01 09:45:00,59.3,56.9,29.90,NNE,12,4.0,4.0,92,0.00,,,0.00,VWS V14.01,2013-09-01 14:45:00,
2013-09-01 09:50:00,59.5,56.5,29.90,NE,40,3.0,7.0,90,0.00,,,0.00,VWS V14.01,2013-09-01 14:50:00,
2013-09-01 09:55:00,59.8,56.2,29.90,North,10,5.0,9.0,88,0.00,,,0.00,VWS V14.01,2013-09-01 14:55:00,
2013-09-01 10:00:00,59.9,55.3,29.90,NW,322,1.0,5.0,85,0.00,,,0.00,VWS V14.01,2013-09-01 15:00:00,
2013-09-01 10:05:00,59.9,55.3,29.90,NE,48,4.0,7.0,85,0.00,,,0.00,VWS V14.01,2013-09-01 15:05:00,
2013-09-01 10:10:00,60.3,55.3,29.90,NNE,24,4.0,7.0,84,0.00,,,0.00,VWS V14.01,2013-09-01 15:10:00,
2013-09-01 10:15:00,60.7,55.1,29.91,NNW,340,3.0,8.0,82,0.00,,,0.00,VWS V14.01,2013-09-01 15:15:00,
2013-09-01 10:20:00,60.4,54.5,29.91,WNW,288,3.0,8.0,81,0.00,,,0.00,VWS V14.01,2013-09-01 15:20:00,
2013-09-01 10:25:00,60.4,54.5,29.91,NNE,13,4.0,8.0,81,0.00,,,0.00,VWS V14.01,2013-09-01 15:25:00,
2013-09-01 10:30:00,60.6,54.6,29.91,NNE,14,4.0,4.0,81,0.00,,,0.00,VWS V14.01,2013-09-01 15:30:00,
2013-09-01 10:35:00,61.1,55.5,29.91,NE,55,3.0,7.0,82,0.00,,,0.00,VWS V14.01,2013-09-01 15:35:00,
2013-09-01 10:40:00,61.2,54.9,29.91,North,349,2.0,8.0,80,0.00,,,0.00,VWS V14.01,2013-09-01 15:40:00,
2013-09-01 10:45:00,61.5,55.5,29.91,NNW,336,1.0,2.0,81,0.00,,,0.00,VWS V14.01,2013-09-01 15:45:00,
2013-09-01 10:50:00,61.8,55.1,29.91,NW,313,1.0,5.0,79,0.00,,,0.00,VWS V14.01,2013-09-01 15:50:00,
2013-09-01 10:55:00,62.2,54.8,29.91,North,9,3.0,8.0,77,0.00,,,0.00,VWS V14.01,2013-09-01 15:55:00,
2013-09-01 11:00:00,62.7,54.9,29.91,North,7,6.0,6.0,76,0.00,,,0.00,VWS V14.01,2013-09-01 16:00:00,
2013-09-01 11:05:00,63.2,55.8,29.91,North,354,2.0,8.0,77,0.00,,,0.00,VWS V14.01,2013-09-01 16:05:00,
2013-09-01 11:10:00,63.5,54.6,29.91,NNW,339,4.0,8.0,73,0.00,,,0.00,VWS V14.01,2013-09-01 16:10:00,
2013-09-01 11:15:00,63.4,54.9,29.91,North,1,3.0,4.0,74,0.00,,,0.00,VWS V14.01,2013-09-01 16:15:00,
2013-09-01 11:20:00,63.8,55.2,29.92,NNE,15,2.0,6.0,74,0.00,,,0.00,VWS V14.01,2013-09-01 16:20:00,
2013-09-01 11:25:00,64.2,55.6,29.92,NE,49,5.0,7.0,74,0.00,,,0.00,VWS V14.01,2013-09-01 16:25:00,
2013-09-01 11:30:00,64.4,55.8,29.91,NNE,17,3.0,5.0,74,0.00,,,0.00,VWS V14.01,2013-09-01 16:30:00,
2013-09-01 11:35:00,64.0,55.5,29.92,NW,313,5.0,5.0,74,0.00,,,0.00,VWS V14.01,2013-09-01 16:35:00,
2013-09-01 11:40:00,63.6,54.3,29.92,North,357,2.0,5.0,72,0.00,,,0.00,VWS V14.01,2013-09-01 16:40:00,
2013-09-01 11:45:00,63.7,55.5,29.91,North,9,5.0,5.0,75,0.00,,,0.00,VWS V14.01,2013-09-01 16:45:00,
2013-09-01 11:50:00,63.8,55.6,29.92,NNW,344,3.0,8.0,75,0.00,,,0.00,VWS V14.01,2013-09-01 16:50:00,
2013-09-01 11:55:00,63.8,55.6,29.92,North,355,1.0,8.0,75,0.00,,,0.00,VWS V14.01,2013-09-01 16:55:00,
2013-09-01 12:00:00,63.6,54.7,29.92,NNE,17,3.0,4.0,73,0.00,,,0.00,VWS V14.01,2013-09-01 17:00:00,
2013-09-01 12:05:00,63.5,55.3,29.92,NNW,335,1.0,6.0,75,0.00,,,0.00,VWS V14.01,2013-09-01 17:05:00,
2013-09-01 12:10:00,63.6,55.8,29.92,NNW,334,3.0,7.0,76,0.00,,,0.00,VWS V14.01,2013-09-01 17:10:00,
2013-09-01 12:15:00,63.7,55.9,29.91,NE,40,2.0,2.0,76,0.00,,,0.00,VWS V14.01,2013-09-01 17:15:00,
2013-09-01 12:20:00,63.9,55.3,29.91,NE,42,3.0,6.0,74,0.00,,,0.00,VWS V14.01,2013-09-01 17:20:00,
2013-09-01 12:25:00,64.0,55.5,29.91,NNW,342,1.0,6.0,74,0.00,,,0.00,VWS V14.01,2013-09-01 17:25:00,
2013-09-01 12:30:00,64.2,55.6,29.91,NNE,17,2.0,2.0,74,0.00,,,0.00,VWS V14.01,2013-09-01 17:30:00,
2013-09-01 12:35:00,64.5,56.3,29.91,North,7,5.0,6.0,75,0.00,,,0.00,VWS V14.01,2013-09-01 17:35:00,
2013-09-01 12:40:00,64.7,55.4,29.91,NNW,342,2.0,6.0,72,0.00,,,0.00,VWS V14.01,2013-09-01 17:40:00,
2013-09-01 12:45:00,64.9,55.2,29.91,NW,317,1.0,4.0,71,0.00,,,0.00,VWS V14.01,2013-09-01 17:45:00,
2013-09-01 12:50:00,65.1,55.4,29.91,NW,321,1.0,5.0,71,0.00,,,0.00,VWS V14.01,2013-09-01 17:50:00,
2013-09-01 12:55:00,65.3,55.2,29.91,WNW,301,1.0,6.0,70,0.00,,,0.00,VWS V14.01,2013-09-01 17:55:00,
2013-09-01 13:00:00,65.4,55.7,29.91,North,350,2.0,5.0,71,0.00,,,0.00,VWS V14.01,2013-09-01 18:00:00,
2013-09-01 13:05:00,65.8,55.2,29.91,North,7,3.0,9.0,69,0.00,,,0.00,VWS V14.01,2013-09-01 18:05:00,
2013-09-01 13:10:00,66.1,54.7,29.91,WNW,288,3.0,9.0,67,0.00,,,0.00,VWS V14.01,2013-09-01 18:10:00,
2013-09-01 13:15:00,66.4,55.0,29.91,NW,320,3.0,3.0,67,0.00,,,0.00,VWS V14.01,2013-09-01 18:15:00,
2013-09-01 13:20:00,66.6,54.3,29.91,NNE,13,2.0,4.0,65,0.00,,,0.00,VWS V14.01,2013-09-01 18:20:00,
2013-09-01 13:25:00,66.9,55.9,29.91,WNW,293,2.0,8.0,68,0.00,,,0.00,VWS V14.01,2013-09-01 18:25:00,
2013-09-01 13:30:00,67.1,55.2,29.91,NE,44,5.0,5.0,66,0.00,,,0.00,VWS V14.01,2013-09-01 18:30:00,
2013-09-01 13:35:00,67.4,55.1,29.90,NNE,22,3.0,8.0,65,0.00,,,0.00,VWS V14.01,2013-09-01 18:35:00,
2013-09-01 13:40:00,67.2,54.9,29.90,West,274,4.0,8.0,65,0.00,,,0.00,VWS V14.01,2013-09-01 18:40:00,
2013-09-01 13:45:00,67.5,56.5,29.90,NW,321,5.0,5.0,68,0.00,,,0.00,VWS V14.01,2013-09-01 18:45:00,
2013-09-01 13:50:00,67.5,55.6,29.90,NW,313,2.0,7.0,66,0.00,,,0.00,VWS V14.01,2013-09-01 18:50:00,
2013-09-01 13:55:00,67.7,55.0,29.90,North,354,5.0,7.0,64,0.00,,,0.00,VWS V14.01,2013-09-01 18:55:00,
2013-09-01 14:00:00,68.0,55.2,29.90,North,352,1.0,1.0,64,0.00,,,0.00,VWS V14.01,2013-09-01 19:00:00,
2013-09-01 14:05:00,68.3,54.7,29.90,NE,51,3.0,6.0,62,0.00,,,0.00,VWS V14.01,2013-09-01 19:05:00,
2013-09-01 14:10:00,68.8,56.0,29.90,NNE,31,2.0,6.0,64,0.00,,,0.00,VWS V14.01,2013-09-01 19:10:00,
2013-09-01 14:15:00,69.2,56.4,29.89,North,354,3.0,3.0,64,0.00,,,0.00,VWS V14.01,2013-09-01 19:15:00,
2013-09-01 14:20:00,69.2,56.4,29.89,NNW,340,2.0,9.0,64,0.00,,,0.00,VWS V14.01,2013-09-01 19:20:00,
2013-09-01 14:25:00,69.3,56.0,29.89,NNW,331,3.0,9.0,63,0.00,,,0.00,VWS V14.01,2013-09-01 19:25:00,
2013-09-01 14:30:00,69.1,55.0,29.89,NE,36,3.0,3.0,61,0.00,,,0.00,VWS V14.01,2013-09-01 19:30:00,
2013-09-01 14:35:00,69.4,57.0,29.89,North,358,3.0,7.0,65,0.00,,,0.00,VWS V14.01,2013-09-01 19:35:00,
2013-09-01 14:40:00,69.5,54.9,29.90,NW,311,2.0,7.0,60,0.00,,,0.00,VWS V14.01,2013-09-01 19:40:00,
2013-09-01 14:45:00,69.7,56.0,29.89,NW,321,1.0,1.0,62,0.00,,,0.00,VWS V14.01,2013-09-01 19:45:00,
2013-09-01 14:50:00,69.6,55.0,29.89,West,281,5.0,7.0,60,0.00,,,0.00,VWS V14.01,2013-09-01 19:50:00,
2013-09-01 14:55:00,69.5,56.7,29.89,NW,320,2.0,10.0,64,0.00,,,0.00,VWS V14.01,2013-09-01 19:55:00,
2013-09-01 15:00:00,69.2,56.0,29.89,WNW,284,3.0,3.0,63,0.00,,,0.00,VWS V14.01,2013-09-01 20:00:00,
2013-09-01 15:05:00,69.4,56.6,29.89,NNW,335,2.0,6.0,64,0.00,,,0.00,VWS V14.01,2013-09-01 20:05:00,
2013-09-01 15:10:00,69.8,54.7,29.89,NW,309,4.0,6.0,59,0.00,,,0.00,VWS V14.01,2013-09-01 20:10:00,
2013-09-01 15:15:00,69.9,54.8,29.89,NW,309,3.0,4.0,59,0.00,,,0.00,VWS V14.01,2013-09-01 20:15:00,
2013-09-01 15:20:00,70.0,57.2,29.89,ENE,63,2.0,6.0,64,0.00,,,0.00,VWS V14.01,2013-09-01 20:20:00,
2013-09-01 15:25:00,70.2,56.9,29.89,North,6,2.0,7.0,63,0.00,,,0.00,VWS V14.01,2013-09-01 20:25:00,
2013-09-01 15:30:00,70.1,55.9,29.89,WNW,292,3.0,4.0,61,0.00,,,0.00,VWS V14.01,2013-09-01 20:30:00,
2013-09-01 15:35:00,69.8,56.5,29.89,WNW,302,4.0,6.0,63,0.00,,,0.00,VWS V14.01,2013-09-01 20:35:00,
2013-09-01 15:40:00,69.9,56.2,29.89,NNW,327,1.0,6.0,62,0.00,,,0.00,VWS V14.01,2013-09-01 20:40:00,
2013-09-01 15:45:00,69.9,56.6,29.89,WNW,302,2.0,2.0,63,0.00,,,0.00,VWS V14.01,2013-09-01 20:45:00,
2013-09-01 15:50:00,69.9,56.2,29.89,West,271,2.0,5.0,62,0.00,,,0.00,VWS V14.01,2013-09-01 20:50:00,
2013-09-01 15:55:00,69.8,56.1,29.89,NW,326,1.0,5.0,62,0.00,,,0.00,VWS V14.01,2013-09-01 20:55:00,
2013-09-01 16:00:00,69.9,56.6,29.88,NNW,337,1.0,1.0,63,0.00,,,0.00,VWS V14.01,2013-09-01 21:00:00,
2013-09-01 16:05:00,70.3,56.5,29.89,North,7,3.0,6.0,62,0.00,,,0.00,VWS V14.01,2013-09-01 21:05:00,
2013-09-01 16:10:00,70.5,56.3,29.89,NNW,346,5.0,7.0,61,0.00,,,0.00,VWS V14.01,2013-09-01 21:10:00,
2013-09-01 16:15:00,71.1,57.3,29.88,NW,317,2.0,2.0,62,0.00,,,0.00,VWS V14.01,2013-09-01 21:15:00,
2013-09-01 16:20:00,70.8,56.1,29.89,NW,321,1.0,7.0,60,0.00,,,0.00,VWS V14.01,2013-09-01 21:20:00,
2013-09-01 16:25:00,70.3,55.6,29.88,NW,325,2.0,7.0,60,0.00,,,0.00,VWS V14.01,2013-09-01 21:25:00,
2013-09-01 16:30:00,69.8,55.2,29.88,WNW,301,2.0,2.0,60,0.00,,,0.00,VWS V14.01,2013-09-01 21:30:00,
2013-09-01 16:35:00,69.7,55.5,29.88,North,355,0.0,3.0,61,0.00,,,0.00,VWS V14.01,2013-09-01 21:35:00,
2013-09-01 16:40:00,69.7,56.0,29.88,WNW,288,3.0,4.0,62,0.00,,,0.00,VWS V14.01,2013-09-01 21:40:00,
2013-09-01 16:45:00,69.7,54.1,29.88,WSW,255,4.0,4.0,58,0.00,,,0.00,VWS V14.01,2013-09-01 21:45:00,
2013-09-01 16:50:00,69.6,56.3,29.88,NW,318,1.0,4.0,63,0.00,,,0.00,VWS V14.01,2013-09-01 21:50:00,
2013-09-01 16:55:00,69.6,56.3,29.88,NNE,22,2.0,5.0,63,0.00,,,0.00,VWS V14.01,2013-09-01 21:55:00,
2013-09-01 17:00:00,69.3,56.0,29.88,NNW,335,1.0,5.0,63,0.00,,,0.00,VWS V14.01,2013-09-01 22:00:00,
2013-09-01 17:05:00,69.4,56.1,29.88,North,358,1.0,2.0,63,0.00,,,0.00,VWS V14.01,2013-09-01 22:05:00,
2013-09-01 17:10:00,69.5,55.3,29.88,WNW,296,1.0,3.0,61,0.00,,,0.00,VWS V14.01,2013-09-01 22:10:00,
2013-09-01 17:15:00,69.6,56.3,29.88,WNW,299,1.0,3.0,63,0.00,,,0.00,VWS V14.01,2013-09-01 22:15:00,
2013-09-01 17:20:00,69.7,57.7,29.88,North,10,3.0,4.0,66,0.00,,,0.00,VWS V14.01,2013-09-01 22:20:00,
2013-09-01 17:25:00,69.5,57.1,29.88,NNW,346,1.0,4.0,65,0.00,,,0.00,VWS V14.01,2013-09-01 22:25:00,
2013-09-01 17:30:00,69.4,56.6,29.88,North,11,2.0,4.0,64,0.00,,,0.00,VWS V14.01,2013-09-01 22:30:00,
2013-09-01 17:35:00,69.2,56.4,29.88,North,356,3.0,5.0,64,0.00,,,0.00,VWS V14.01,2013-09-01 22:35:00,
2013-09-01 17:41:00,69.0,55.3,29.88,NW,321,2.0,5.0,62,0.00,,,0.00,VWS V14.01,2013-09-01 22:41:00,
2013-09-01 17:45:00,69.7,55.5,29.88,WSW,257,3.0,7.0,61,0.00,,,0.00,VWS V14.01,2013-09-01 22:45:00,
2013-09-01 17:46:00,69.0,54.9,29.88,NW,324,1.0,2.0,61,0.00,,,0.00,VWS V14.01,2013-09-01 22:46:00,
2013-09-01 17:51:00,69.0,55.3,29.88,NW,319,1.0,3.0,62,0.00,,,0.00,VWS V14.01,2013-09-01 22:51:00,
2013-09-01 17:56:00,69.1,55.4,29.88,West,278,1.0,4.0,62,0.00,,,0.00,VWS V14.01,2013-09-01 22:56:00,
2013-09-01 18:00:00,69.3,56.0,29.88,NNW,335,1.0,5.0,63,0.00,,,0.00,VWS V14.01,2013-09-01 23:00:00,
2013-09-01 18:01:00,69.2,56.8,29.87,WNW,286,4.0,5.0,65,0.00,,,0.00,VWS V14.01,2013-09-01 23:01:00,
2013-09-01 18:06:00,70.0,55.3,29.87,WNW,290,6.0,7.0,60,0.00,,,0.00,VWS V14.01,2013-09-01 23:06:00,
2013-09-01 18:11:00,70.5,55.4,29.87,West,267,4.0,7.0,59,0.00,,,0.00,VWS V14.01,2013-09-01 23:11:00,
2013-09-01 18:15:00,69.6,56.3,29.88,WNW,299,1.0,3.0,63,0.00,,,0.00,VWS V14.01,2013-09-01 23:15:00,
2013-09-01 18:16:00,70.8,56.6,29.87,WNW,285,4.0,4.0,61,0.00,,,0.00,VWS V14.01,2013-09-01 23:16:00,
2013-09-01 18:21:00,70.8,56.1,29.87,WNW,292,4.0,9.0,60,0.00,,,0.00,VWS V14.01,2013-09-01 23:21:00,
2013-09-01 18:26:00,70.4,56.2,29.87,NNW,344,2.0,9.0,61,0.00,,,0.00,VWS V14.01,2013-09-01 23:26:00,
2013-09-01 18:30:00,69.4,56.6,29.88,North,11,2.0,4.0,64,0.00,,,0.00,VWS V14.01,2013-09-01 23:30:00,
2013-09-01 18:31:00,70.3,55.6,29.87,NNW,342,2.0,3.0,60,0.00,,,0.00,VWS V14.01,2013-09-01 23:31:00,
2013-09-01 18:36:00,70.0,55.3,29.87,North,355,1.0,7.0,60,0.00,,,0.00,VWS V14.01,2013-09-01 23:36:00,
2013-09-01 18:41:00,69.5,55.3,29.87,North,10,2.0,7.0,61,0.00,,,0.00,VWS V14.01,2013-09-01 23:41:00,
2013-09-01 18:45:00,69.0,55.8,29.88,NW,324,1.0,5.0,63,0.00,,,0.00,VWS V14.01,2013-09-01 23:45:00,
2013-09-01 18:46:00,69.0,54.4,29.87,NNE,21,3.0,4.0,60,0.00,,,0.00,VWS V14.01,2013-09-01 23:46:00,
2013-09-01 18:51:00,68.9,55.7,29.87,NNW,346,3.0,7.0,63,0.00,,,0.00,VWS V14.01,2013-09-01 23:51:00,
2013-09-01 18:56:00,68.7,54.1,29.87,NNE,25,4.0,7.0,60,0.00,,,0.00,VWS V14.01,2013-09-01 23:56:00,
2013-09-01 19:00:00,69.1,56.3,29.87,West,277,5.0,5.0,64,0.00,,,0.00,VWS V14.01,2013-09-02 00:00:00,
2013-09-01 19:01:00,68.5,54.8,29.87,NE,44,3.0,5.0,62,0.00,,,0.00,VWS V14.01,2013-09-02 00:01:00,
2013-09-01 19:06:00,68.6,54.5,29.87,NE,41,2.0,5.0,61,0.00,,,0.00,VWS V14.01,2013-09-02 00:06:00,
2013-09-01 19:11:00,68.5,53.5,29.87,NNE,12,1.0,5.0,59,0.00,,,0.00,VWS V14.01,2013-09-02 00:11:00,
2013-09-01 19:15:00,70.8,56.6,29.87,NW,312,1.0,7.0,61,0.00,,,0.00,VWS V14.01,2013-09-02 00:15:00,
2013-09-01 19:16:00,68.6,54.5,29.87,NNE,33,2.0,2.0,61,0.00,,,0.00,VWS V14.01,2013-09-02 00:16:00,
2013-09-01 19:21:00,68.5,54.4,29.87,North,1,1.0,4.0,61,0.00,,,0.00,VWS V14.01,2013-09-02 00:21:00,
2013-09-01 19:26:00,68.2,54.1,29.87,NNE,12,3.0,4.0,61,0.00,,,0.00,VWS V14.01,2013-09-02 00:26:00,
2013-09-01 19:30:00,70.4,55.7,29.87,NW,317,3.0,9.0,60,0.00,,,0.00,VWS V14.01,2013-09-02 00:30:00,
2013-09-01 19:31:00,67.9,53.8,29.87,NE,51,1.0,3.0,61,0.00,,,0.00,VWS V14.01,2013-09-02 00:31:00,
2013-09-01 19:36:00,67.8,54.2,29.87,NNE,24,2.0,5.0,62,0.00,,,0.00,VWS V14.01,2013-09-02 00:36:00,
2013-09-01 19:41:00,67.6,54.0,29.87,NE,47,3.0,5.0,62,0.00,,,0.00,VWS V14.01,2013-09-02 00:41:00,
2013-09-01 19:45:00,69.1,55.0,29.87,NNW,336,2.0,7.0,61,0.00,,,0.00,VWS V14.01,2013-09-02 00:45:00,
2013-09-01 19:46:00,67.4,53.4,29.87,NNE,27,2.0,3.0,61,0.00,,,0.00,VWS V14.01,2013-09-02 00:46:00,
2013-09-01 19:51:00,67.2,53.6,29.87,NNE,18,1.0,3.0,62,0.00,,,0.00,VWS V14.01,2013-09-02 00:51:00,
2013-09-01 19:56:00,67.0,53.4,29.87,NNE,19,1.0,3.0,62,0.00,,,0.00,VWS V14.01,2013-09-02 00:56:00,
2013-09-01 20:00:00,68.6,54.5,29.87,NE,44,3.0,7.0,61,0.00,,,0.00,VWS V14.01,2013-09-02 01:00:00,
2013-09-01 20:01:00,66.8,53.2,29.87,NNE,17,1.0,2.0,62,0.00,,,0.00,VWS V14.01,2013-09-02 01:01:00,
2013-09-01 20:06:00,66.6,53.5,29.87,NE,48,0.0,3.0,63,0.00,,,0.00,VWS V14.01,2013-09-02 01:06:00,
2013-09-01 20:11:00,66.3,53.6,29.87,NE,52,1.0,3.0,64,0.00,,,0.00,VWS V14.01,2013-09-02 01:11:00,
2013-09-01 20:15:00,68.6,54.5,29.87,NNE,33,1.0,5.0,61,0.00,,,0.00,VWS V14.01,2013-09-02 01:15:00,
2013-09-01 20:16:00,65.9,53.3,29.87,NNE,30,1.0,2.0,64,0.00,,,0.00,VWS V14.01,2013-09-02 01:16:00,
2013-09-01 20:21:00,65.5,52.9,29.87,NNE,30,1.0,2.0,64,0.00,,,0.00,VWS V14.01,2013-09-02 01:21:00,
2013-09-01 20:26:00,65.1,52.9,29.87,NE,34,1.0,2.0,65,0.00,,,0.00,VWS V14.01,2013-09-02 01:26:00,
2013-09-01 20:30:00,67.9,53.4,29.87,NNW,345,0.0,4.0,60,0.00,,,0.00,VWS V14.01,2013-09-02 01:30:00,
2013-09-01 20:31:00,64.8,52.7,29.87,NE,34,0.0,1.0,65,0.00,,,0.00,VWS V14.01,2013-09-02 01:31:00,
2013-09-01 20:36:00,64.4,52.7,29.87,NE,34,1.0,2.0,66,0.00,,,0.00,VWS V14.01,2013-09-02 01:36:00,
2013-09-01 20:41:00,64.0,52.3,29.87,NE,36,1.0,2.0,66,0.00,,,0.00,VWS V14.01,2013-09-02 01:41:00,
2013-09-01 20:45:00,67.5,53.5,29.86,NNE,23,1.0,5.0,61,0.00,,,0.00,VWS V14.01,2013-09-02 01:45:00,
2013-09-01 20:46:00,63.7,52.4,29.87,NE,45,3.0,3.0,67,0.00,,,0.00,VWS V14.01,2013-09-02 01:46:00,
2013-09-01 20:51:00,63.5,52.2,29.87,NE,46,1.0,4.0,67,0.00,,,0.00,VWS V14.01,2013-09-02 01:51:00,
2013-09-01 20:56:00,63.4,51.7,29.87,ENE,68,1.0,4.0,66,0.00,,,0.00,VWS V14.01,2013-09-02 01:56:00,
2013-09-01 21:00:00,66.8,53.2,29.87,NNE,17,2.0,3.0,62,0.00,,,0.00,VWS V14.01,2013-09-02 02:00:00,
2013-09-01 21:01:00,63.4,50.9,29.87,ENE,61,1.0,2.0,64,0.00,,,0.00,VWS V14.01,2013-09-02 02:01:00,
2013-09-01 21:06:00,63.4,50.0,29.87,ENE,78,1.0,3.0,62,0.00,,,0.00,VWS V14.01,2013-09-02 02:06:00,
2013-09-01 21:11:00,63.4,50.0,29.87,East,88,1.0,3.0,62,0.00,,,0.00,VWS V14.01,2013-09-02 02:11:00,
2013-09-01 21:15:00,65.9,53.3,29.87,NNE,30,1.0,3.0,64,0.00,,,0.00,VWS V14.01,2013-09-02 02:15:00,
2013-09-01 21:16:00,63.6,50.2,29.88,East,97,2.0,3.0,62,0.00,,,0.00,VWS V14.01,2013-09-02 02:16:00,
2013-09-01 21:21:00,63.7,50.3,29.88,ENE,78,2.0,4.0,62,0.00,,,0.00,VWS V14.01,2013-09-02 02:21:00,
2013-09-01 21:26:00,63.8,50.0,29.87,East,99,2.0,4.0,61,0.00,,,0.00,VWS V14.01,2013-09-02 02:26:00,
2013-09-01 21:30:00,64.8,52.7,29.87,NE,34,1.0,2.0,65,0.00,,,0.00,VWS V14.01,2013-09-02 02:30:00,
2013-09-01 21:31:00,64.0,50.2,29.87,East,94,2.0,3.0,61,0.00,,,0.00,VWS V14.01,2013-09-02 02:31:00,
2013-09-01 21:36:00,64.2,49.5,29.87,ESE,117,3.0,4.0,59,0.00,,,0.00,VWS V14.01,2013-09-02 02:36:00,
2013-09-01 21:41:00,64.3,49.1,29.88,East,97,3.0,5.0,58,0.00,,,0.00,VWS V14.01,2013-09-02 02:41:00,
2013-09-01 21:45:00,63.8,52.5,29.87,NE,46,1.0,4.0,67,0.00,,,0.00,VWS V14.01,2013-09-02 02:45:00,
2013-09-01 21:46:00,64.1,48.9,29.88,East,96,4.0,4.0,58,0.00,,,0.00,VWS V14.01,2013-09-02 02:46:00,
2013-09-01 21:51:00,64.0,48.3,29.88,ESE,103,2.0,5.0,57,0.00,,,0.00,VWS V14.01,2013-09-02 02:51:00,
2013-09-01 21:56:00,63.8,48.2,29.88,East,86,4.0,5.0,57,0.00,,,0.00,VWS V14.01,2013-09-02 02:56:00,
2013-09-01 22:00:00,63.4,51.3,29.87,NE,47,0.0,4.0,65,0.00,,,0.00,VWS V14.01,2013-09-02 03:00:00,
2013-09-01 22:01:00,63.6,48.0,29.87,East,101,3.0,5.0,57,0.00,,,0.00,VWS V14.01,2013-09-02 03:01:00,
2013-09-01 22:06:00,63.5,47.9,29.87,East,93,2.0,5.0,57,0.00,,,0.00,VWS V14.01,2013-09-02 03:06:00,
2013-09-01 22:11:00,63.4,47.8,29.87,East,97,4.0,5.0,57,0.00,,,0.00,VWS V14.01,2013-09-02 03:11:00,
2013-09-01 22:15:00,63.6,50.2,29.88,ENE,78,2.0,3.0,62,0.00,,,0.00,VWS V14.01,2013-09-02 03:15:00,
2013-09-01 22:16:00,63.2,47.1,29.87,ESE,102,3.0,5.0,56,0.00,,,0.00,VWS V14.01,2013-09-02 03:16:00,
2013-09-01 22:21:00,63.0,46.9,29.87,ESE,110,4.0,6.0,56,0.00,,,0.00,VWS V14.01,2013-09-02 03:21:00,
2013-09-01 22:26:00,62.9,46.8,29.87,ESE,119,5.0,6.0,56,0.00,,,0.00,VWS V14.01,2013-09-02 03:26:00,
2013-09-01 22:30:00,63.9,49.6,29.87,East,98,2.0,5.0,60,0.00,,,0.00,VWS V14.01,2013-09-02 03:30:00,
2013-09-01 22:31:00,62.9,46.4,29.87,East,95,4.0,5.0,55,0.00,,,0.00,VWS V14.01,2013-09-02 03:31:00,
2013-09-01 22:36:00,62.8,46.3,29.87,ESE,104,3.0,7.0,55,0.00,,,0.00,VWS V14.01,2013-09-02 03:36:00,
2013-09-01 22:41:00,62.7,46.7,29.87,ESE,110,3.0,7.0,56,0.00,,,0.00,VWS V14.01,2013-09-02 03:41:00,
2013-09-01 22:45:00,64.2,49.0,29.88,ESE,115,4.0,5.0,58,0.00,,,0.00,VWS V14.01,2013-09-02 03:45:00,
2013-09-01 22:46:00,62.5,46.5,29.88,East,96,2.0,5.0,56,0.00,,,0.00,VWS V14.01,2013-09-02 03:46:00,
2013-09-01 22:51:00,62.4,46.8,29.88,ESE,113,3.0,5.0,57,0.00,,,0.00,VWS V14.01,2013-09-02 03:51:00,
2013-09-01 22:56:00,62.2,46.7,29.87,ESE,120,1.0,5.0,57,0.00,,,0.00,VWS V14.01,2013-09-02 03:56:00,
2013-09-01 23:00:00,63.7,48.1,29.88,East,97,5.0,5.0,57,0.00,,,0.00,VWS V14.01,2013-09-02 04:00:00,
2013-09-01 23:01:00,61.9,47.3,29.88,SE,142,3.0,4.0,59,0.00,,,0.00,VWS V14.01,2013-09-02 04:01:00,
2013-09-01 23:06:00,61.2,47.5,29.88,SE,138,4.0,5.0,61,0.00,,,0.00,VWS V14.01,2013-09-02 04:06:00,
2013-09-01 23:11:00,60.7,47.9,29.88,SSE,149,3.0,7.0,63,0.00,,,0.00,VWS V14.01,2013-09-02 04:11:00,
2013-09-01 23:15:00,63.3,47.2,29.87,East,99,4.0,5.0,56,0.00,,,0.00,VWS V14.01,2013-09-02 04:15:00,
2013-09-01 23:16:00,60.2,47.9,29.88,SE,144,1.0,3.0,64,0.00,,,0.00,VWS V14.01,2013-09-02 04:16:00,
2013-09-01 23:21:00,59.7,48.2,29.88,SE,130,2.0,4.0,66,0.00,,,0.00,VWS V14.01,2013-09-02 04:21:00,
2013-09-01 23:26:00,59.5,48.4,29.88,SE,126,2.0,4.0,67,0.00,,,0.00,VWS V14.01,2013-09-02 04:26:00,
2013-09-01 23:30:00,62.8,46.8,29.87,East,94,3.0,6.0,56,0.00,,,0.00,VWS V14.01,2013-09-02 04:30:00,
2013-09-01 23:31:00,59.5,48.4,29.88,SE,141,3.0,4.0,67,0.00,,,0.00,VWS V14.01,2013-09-02 04:31:00,
2013-09-01 23:36:00,59.3,48.6,29.88,SSE,153,2.0,4.0,68,0.00,,,0.00,VWS V14.01,2013-09-02 04:36:00,
2013-09-01 23:41:00,59.0,48.7,29.88,SE,134,1.0,4.0,69,0.00,,,0.00,VWS V14.01,2013-09-02 04:41:00,
2013-09-01 23:45:00,62.5,46.5,29.87,ESE,112,3.0,7.0,56,0.00,,,0.00,VWS V14.01,2013-09-02 04:45:00,
2013-09-01 23:46:00,58.7,49.2,29.88,SE,142,3.0,5.0,71,0.00,,,0.00,VWS V14.01,2013-09-02 04:46:00,
2013-09-01 23:51:00,58.4,48.9,29.88,SE,134,3.0,6.0,71,0.00,,,0.00,VWS V14.01,2013-09-02 04:51:00,
2013-09-01 23:56:00,58.2,48.7,29.87,SE,139,4.0,6.0,71,0.00,,,0.00,VWS V14.01,2013-09-02 04:56:00,